EW9592 Weather Reports


Display with metric or nautical units.
time (UTC)temp
F
wind
direction
speed
MPH
gust
MPH
rain 1hr
in
rain 24hr
in
rain mn
in
humidity
%
barometer
mb
20260510233017 70 12 0.0 0.0 0.00 0.00 0.00 49 1016.4
20260510231517 71 12 0.0 1.0 0.00 0.00 0.00 45 1016.4
20260510230016 71 343 0.0 0.0 0.00 0.00 0.00 55 1016.3
20260510224516 72 341 0.0 1.0 0.00 0.00 0.00 46 1016.2
20260510223014 72 341 0.0 1.0 0.00 0.00 0.00 44 1016.4
20260510221515 73 348 0.0 1.0 0.00 0.00 0.00 47 1016.3
20260510220014 73 15 0.0 3.0 0.00 0.00 0.00 45 1016.1
20260510214517 73 343 0.0 2.0 0.00 0.00 0.00 45 1016.1
20260510213011 74 270 0.0 1.0 0.00 0.00 0.00 45 1016.0
20260510211517 74 246 0.0 2.0 0.00 0.00 0.00 43 1016.1
20260510210008 73 269 0.0 2.0 0.00 0.00 0.00 46 1015.9
20260510204512 73 89 0.0 1.0 0.00 0.00 0.00 51 1016.0
20260510203007 73 19 0.0 3.0 0.00 0.00 0.00 45 1016.1
20260510201505 73 6 0.0 1.0 0.00 0.00 0.00 55 1015.9
20260510200005 73 20 0.0 2.0 0.00 0.00 0.00 49 1016.0
20260510194505 73 274 0.0 3.0 0.00 0.00 0.00 56 1016.0
20260510193003 73 10 0.0 3.0 0.00 0.00 0.00 52 1015.9
20260510191502 72 15 0.0 2.0 0.00 0.00 0.00 57 1015.9
20260510190003 73 20 0.0 2.0 0.00 0.00 0.00 59 1016.0
20260510184610 73 355 0.0 4.0 0.00 0.00 0.00 56 1016.0
20260510183111 73 296 0.0 3.0 0.00 0.00 0.00 57 1015.8
20260510181618 73 8 0.0 5.0 0.00 0.00 0.00 60 1015.9
20260510180105 72 343 0.0 2.0 0.00 0.00 0.00 62 1016.0
20260510174618 73 8 0.0 4.0 0.00 0.00 0.00 62 1016.0
20260510173058 73 351 0.0 3.0 0.00 0.00 0.00 62 1016.0
20260510171621 73 44 0.0 3.0 0.00 0.00 0.00 63 1016.0
20260510170054 72 6 0.0 2.0 0.00 0.00 0.00 63 1015.9
20260510164600 72 11 1.0 3.0 0.00 0.00 0.00 62 1015.8
20260510163102 73 346 0.0 1.0 0.00 0.00 0.00 63 1015.8
20260510161550 73 34 0.0 3.0 0.00 0.00 0.00 62 1015.5
20260510160049 72 33 0.0 2.0 0.00 0.00 0.00 61 1015.5
20260510154545 72 295 0.0 1.0 0.00 0.00 0.00 63 1015.4
20260510153043 70 59 0.0 1.0 0.00 0.00 0.00 66 1015.2
20260510151538 70 16 0.0 1.0 0.00 0.00 0.00 69 1015.2
20260510150036 69 285 0.0 1.0 0.00 0.00 0.00 70 1015.3
20260510144535 68 252 0.0 1.0 0.00 0.00 0.00 72 1015.2
20260510143030 67 266 0.0 2.0 0.00 0.00 0.00 74 1015.2
20260510141527 66 354 0.0 2.0 0.00 0.00 0.00 75 1015.0
20260510140024 65 4 0.0 1.0 0.00 0.00 0.00 79 1015.0
20260510134518 63 236 0.0 1.0 0.00 0.00 0.00 82 1014.7
20260510133014 61 151 0.0 0.0 0.00 0.00 0.00 86 1014.7
20260510131511 60 150 0.0 0.0 0.00 0.00 0.00 88 1014.5
20260510130007 59 150 0.0 0.0 0.00 0.00 0.00 89 1014.3
20260510124505 58 131 0.0 0.0 0.00 0.00 0.00 92 1014.2
20260510123101 57 131 0.0 0.0 0.00 0.00 0.00 92 1013.7
20260510121558 56 131 0.0 0.0 0.00 0.00 0.00 92 1013.4
20260510120056 55 131 0.0 0.0 0.00 0.00 0.00 92 1013.2
20260510114620 54 131 0.0 0.0 0.00 0.00 0.00 92 1013.1
20260510113059 54 131 0.0 0.0 0.00 0.00 0.00 92 1013.2
20260510111555 54 131 0.0 0.0 0.00 0.00 0.00 92 1013.1
20260510110100 53 131 0.0 0.0 0.00 0.00 0.00 92 1013.1
20260510104550 53 131 0.0 0.0 0.00 0.00 0.00 92 1012.8
20260510103053 53 131 0.0 0.0 0.00 0.00 0.00 92 1012.5
20260510101559 53 131 0.0 0.0 0.00 0.00 0.00 92 1012.3
20260510100052 53 131 0.0 0.0 0.00 0.00 0.00 92 1012.1
20260510094551 52 131 0.0 0.0 0.00 0.00 0.00 92 1012.2
20260510093045 52 131 0.0 0.0 0.00 0.00 0.00 92 1012.2
20260510091543 53 131 0.0 0.0 0.00 0.00 0.00 92 1011.8
20260510090041 53 131 0.0 0.0 0.00 0.00 0.00 91 1011.7
20260510084542 53 131 0.0 0.0 0.00 0.00 0.00 91 1011.8
20260510083039 53 131 0.0 0.0 0.00 0.00 0.00 91 1011.7
20260510081542 53 131 0.0 0.0 0.00 0.00 0.00 91 1011.7
20260510080056 53 131 0.0 0.0 0.00 0.00 0.00 91 1011.5
20260510074538 53 131 0.0 0.0 0.00 0.00 0.00 91 1011.2
20260510073041 53 131 0.0 0.0 0.00 0.00 0.00 91 1011.1
20260510071535 53 131 0.0 0.0 0.00 0.00 0.00 91 1011.1
20260510070043 53 131 0.0 0.0 0.00 0.00 0.00 90 1011.0
20260510064531 54 131 0.0 0.0 0.00 0.00 0.00 90 1010.9
20260510063035 54 131 0.0 0.0 0.00 0.00 0.00 90 1011.0
20260510061527 54 131 0.0 0.0 0.00 0.00 0.00 89 1011.1
20260510060036 54 131 0.0 0.0 0.00 0.00 0.00 89 1011.1
20260510054524 55 131 0.0 0.0 0.00 0.00 0.00 88 1011.2
20260510053024 55 131 0.0 0.0 0.00 0.00 0.00 88 1011.3
20260510051522 55 131 0.0 0.0 0.00 0.00 0.00 87 1011.3
20260510050026 55 131 0.0 0.0 0.00 0.00 0.00 87 1011.3
20260510044521 56 131 0.0 0.0 0.00 0.00 0.00 86 1011.3
20260510043016 56 131 0.0 0.0 0.00 0.00 0.00 85 1011.3
20260510041521 56 131 0.0 0.0 0.00 0.00 0.00 85 1011.2
20260510040013 57 131 0.0 0.0 0.00 0.00 0.00 84 1011.2
20260510034511 57 131 0.0 0.0 0.00 0.00 0.00 83 1011.3
20260510033011 58 131 0.0 0.0 0.00 0.00 0.00 82 1011.4
20260510031515 58 131 0.0 0.0 0.00 0.00 0.00 81 1011.4
20260510030109 59 131 0.0 0.0 0.00 0.00 0.00 80 1011.2
20260510024509 60 131 0.0 0.0 0.00 0.00 0.00 79 1011.1
20260510023007 60 131 0.0 0.0 0.00 0.00 0.00 78 1011.0
20260510021517 61 131 0.0 0.0 0.00 0.00 0.00 75 1010.7
20260510020002 62 131 0.0 0.0 0.00 0.00 0.00 73 1010.4
20260510014601 63 131 0.0 0.0 0.00 0.00 0.00 71 1010.3
20260510013111 64 131 0.0 0.0 0.00 0.00 0.00 71 1010.0
20260510011556 65 131 0.0 0.0 0.00 0.00 0.00 68 1009.7
20260510010059 66 131 0.0 0.0 0.00 0.00 0.00 64 1009.5
20260510004553 68 131 0.0 0.0 0.00 0.00 0.00 61 1009.1
20260510003051 69 131 0.0 0.0 0.00 0.00 0.00 62 1009.0
20260510001550 71 131 0.0 1.0 0.00 0.00 0.00 57 1008.7
20260510000049 72 117 0.0 1.0 0.00 0.00 0.00 54 1008.5
20260509234547 73 160 0.0 1.0 0.00 0.00 0.00 53 1008.4